FW3305 Weather Reports


time (UTC)temp
C
wind
direction
speed
KPH
gust
KPH
rain 1hr
cm
rain 24hr
cm
rain mn
cm
humidity
%
barometer
mb
20260906150356 24 80 3.2 9.7 0.00 0.00 0.00 78 1018.7
20260906150152 24 73 1.6 4.8 0.00 0.00 0.00 78 1017.2
20260906145842 24 190 0.0 6.4 0.00 0.00 0.00 79 1018.7
20260906145349 24 94 3.2 8.0 0.00 0.00 0.00 78 1018.5
20260906144853 24 70 3.2 12.9 0.00 0.00 0.00 78 1018.4
20260906144501 24 80 4.8 12.9 0.00 0.00 0.00 78 1016.8
20260906144400 24 88 4.8 12.9 0.00 0.00 0.00 78 1018.2
20260906143845 24 75 6.4 9.7 0.00 0.00 0.00 77 1018.3
20260906143351 24 69 3.2 11.3 0.00 0.00 0.00 79 1018.2
20260906143116 24 87 3.2 11.3 0.00 0.00 0.00 79 1016.7
20260906142856 24 53 3.2 14.5 0.00 0.00 0.00 79 1018.1
20260906142343 24 76 6.4 14.5 0.00 0.00 0.00 80 1018.1
20260906141847 24 94 6.4 14.5 0.00 0.00 0.00 80 1018.1
20260906141623 23 82 6.4 14.5 0.00 0.00 0.00 80 1016.6
20260906141353 23 73 4.8 14.5 0.00 0.00 0.00 80 1018.1
20260906140920 23 74 4.8 11.3 0.00 0.00 0.00 82 1018.1
20260906140344 23 90 6.4 11.3 0.00 0.00 0.00 82 1018.0
20260906140139 23 64 4.8 11.3 0.00 0.00 0.00 82 1016.5
20260906135850 23 71 4.8 12.9 0.00 0.00 0.00 83 1018.0
20260906135355 23 92 3.2 9.7 0.00 0.00 0.00 83 1017.9
20260906134900 23 86 3.2 6.4 0.00 0.00 0.00 84 1017.8
20260906134605 22 67 1.6 6.4 0.00 0.00 0.00 84 1016.4
20260906134407 22 75 3.2 11.3 0.00 0.00 0.00 84 1017.9
20260906133852 22 74 3.2 11.3 0.00 0.00 0.00 84 1017.7
20260906133358 22 80 3.2 9.7 0.00 0.00 0.00 84 1017.9
20260906133111 22 76 3.2 9.7 0.00 0.00 0.00 84 1016.5
20260906132846 22 79 3.2 9.7 0.00 0.00 0.00 84 1018.0
20260906132413 22 84 4.8 9.7 0.00 0.00 0.00 84 1018.0
20260906131858 22 77 4.8 9.7 0.00 0.00 0.00 84 1018.0
20260906131622 22 90 6.4 9.7 0.00 0.00 0.00 84 1016.5
20260906131344 22 82 6.4 11.3 0.00 0.00 0.00 84 1017.9
20260906130850 22 78 3.2 12.9 0.00 0.00 0.00 84 1017.7
20260906130354 22 78 3.2 12.9 0.00 0.00 0.00 84 1017.8
20260906125841 22 94 3.2 14.5 0.00 0.00 0.00 84 1017.8
20260906125347 22 90 4.8 14.5 0.00 0.00 0.00 84 1017.8
20260906124853 22 76 3.2 6.4 0.00 0.00 0.00 85 1017.7
20260906124617 22 73 1.6 6.4 0.00 0.00 0.00 85 1016.3
20260906124359 22 76 1.6 6.4 0.00 0.00 0.00 85 1017.7
20260906123844 22 78 3.2 9.7 0.00 0.00 0.00 86 1017.6
20260906123350 23 88 1.6 8.0 0.00 0.00 0.00 86 1017.6
20260906123113 22 97 0.0 3.2 0.00 0.00 0.00 86 1016.3
20260906122917 22 97 1.6 3.2 0.00 0.00 0.00 86 1017.7
20260906122342 22 98 0.0 3.2 0.00 0.00 0.00 86 1017.6
20260906121847 22 98 0.0 3.2 0.00 0.00 0.00 86 1017.7
20260906121616 22 98 0.0 3.2 0.00 0.00 0.00 86 1016.1
20260906121353 22 98 0.0 3.2 0.00 0.00 0.00 86 1017.5
20260906120858 22 98 1.6 3.2 0.00 0.00 0.00 86 1017.7
20260906120343 22 98 0.0 3.2 0.00 0.00 0.00 86 1017.6
20260906120138 22 98 0.0 3.2 0.00 0.00 0.00 86 1016.1
20260906115849 22 98 0.0 1.6 0.00 0.00 0.00 86 1017.6
20260906115356 22 98 0.0 3.2 0.00 0.00 0.00 86 1017.5
20260906114841 22 98 0.0 3.2 0.00 0.00 0.00 86 1017.6
20260906114609 22 98 0.0 3.2 0.00 0.00 0.00 86 1016.1
20260906114347 22 98 0.0 1.6 0.00 0.00 0.00 86 1017.3
20260906113853 22 98 0.0 1.6 0.00 0.00 0.00 86 1017.2
20260906113400 22 98 0.0 1.6 0.00 0.00 0.00 86 1017.0
20260906113103 22 98 0.0 4.8 0.00 0.00 0.00 85 1015.5
20260906112845 22 98 0.0 6.4 0.00 0.00 0.00 85 1016.9
20260906112352 22 98 3.2 6.4 0.00 0.00 0.00 86 1016.9
20260906111857 22 89 0.0 4.8 0.00 0.00 0.00 85 1016.9
20260906111622 22 89 0.0 4.8 0.00 0.00 0.00 85 1015.4
20260906111344 22 90 1.6 4.8 0.00 0.00 0.00 85 1016.7
20260906110850 22 78 0.0 8.0 0.00 0.00 0.00 85 1016.7
20260906110341 23 77 1.6 8.0 0.00 0.00 0.00 85 1016.6
20260906110132 22 76 1.6 8.0 0.00 0.00 0.00 85 1015.1
20260906105845 23 98 1.6 6.4 0.00 0.00 0.00 85 1016.7
20260906105351 23 102 1.6 6.4 0.00 0.00 0.00 85 1016.8
20260906104857 23 102 1.6 6.4 0.00 0.00 0.00 85 1016.7
20260906104621 22 103 1.6 8.0 0.00 0.00 0.00 85 1015.3
20260906104347 23 111 3.2 8.0 0.00 0.00 0.00 84 1016.7
20260906103852 23 82 3.2 4.8 0.00 0.00 0.00 84 1016.8
20260906103415 23 81 1.6 3.2 0.00 0.00 0.00 84 1016.7
20260906103118 23 80 0.0 3.2 0.00 0.00 0.00 84 1015.2
20260906102920 23 80 0.0 3.2 0.00 0.00 0.00 84 1016.7
20260906102406 23 80 0.0 3.2 0.00 0.00 0.00 84 1016.8
20260906101851 23 79 1.6 3.2 0.00 0.00 0.00 84 1016.8
20260906101625 23 80 0.0 3.2 0.00 0.00 0.00 84 1015.4
20260906101357 23 80 1.6 3.2 0.00 0.00 0.00 84 1016.8
20260906100842 23 81 0.0 4.8 0.00 0.00 0.00 84 1016.7
20260906100410 23 80 1.6 4.8 0.00 0.00 0.00 84 1016.6
20260906100144 23 77 0.0 3.2 0.00 0.00 0.00 84 1015.1
20260906095856 23 78 0.0 4.8 0.00 0.00 0.00 84 1016.5
20260906095342 23 78 0.0 6.4 0.00 0.00 0.00 84 1016.5
20260906094848 23 80 1.6 6.4 0.00 0.00 0.00 84 1016.4
20260906094613 23 78 0.0 6.4 0.00 0.00 0.00 84 1014.8
20260906094354 23 78 1.6 6.4 0.00 0.00 0.00 83 1016.3
20260906093859 23 80 0.0 3.2 0.00 0.00 0.00 83 1016.2
20260906093403 23 79 0.0 3.2 0.00 0.00 0.00 84 1016.3
20260906093106 23 79 0.0 3.2 0.00 0.00 0.00 84 1014.7
20260906092848 23 79 0.0 3.2 0.00 0.00 0.00 84 1016.3
20260906092355 24 79 0.0 3.2 0.00 0.00 0.00 84 1016.2
20260906091921 23 79 0.0 3.2 0.00 0.00 0.00 84 1016.2
20260906091345 23 79 0.0 1.6 0.00 0.00 0.00 84 1016.2
20260906090850 23 80 0.0 6.4 0.00 0.00 0.00 84 1016.1
20260906090355 24 79 1.6 9.7 0.00 0.00 0.00 84 1016.0
20260906090149 23 79 0.0 9.7 0.00 0.00 0.00 84 1014.4
20260906085841 24 90 1.6 6.4 0.00 0.00 0.00 84 1015.8
20260906085407 24 86 3.2 6.4 0.00 0.00 0.00 84 1015.8
20260906084852 24 78 1.6 8.0 0.00 0.00 0.00 83 1015.8
20260906084617 23 73 1.6 8.0 0.00 0.00 0.00 83 1014.2
20260906084358 24 75 1.6 8.0 0.00 0.00 0.00 83 1015.7
20260906083843 24 88 1.6 11.3 0.00 0.00 0.00 83 1015.7
20260906083348 24 87 1.6 11.3 0.00 0.00 0.00 83 1015.7
20260906083113 24 86 1.6 11.3 0.00 0.00 0.00 83 1014.2
20260906082855 24 90 1.6 6.4 0.00 0.00 0.00 83 1015.7
20260906082421 24 91 1.6 6.4 0.00 0.00 0.00 83 1015.6
20260906081845 24 88 0.0 4.8 0.00 0.00 0.00 83 1015.8
20260906081610 24 88 0.0 4.8 0.00 0.00 0.00 83 1014.3
20260906081413 24 94 1.6 4.8 0.00 0.00 0.00 83 1015.9
20260906080919 25 94 1.6 4.8 0.00 0.00 0.00 83 1015.9
20260906080406 25 84 1.6 4.8 0.00 0.00 0.00 83 1016.0
20260906080141 24 84 1.6 4.8 0.00 0.00 0.00 83 1014.5
20260906075852 25 80 1.6 8.0 0.00 0.00 0.00 83 1016.1
20260906075357 25 81 3.2 8.0 0.00 0.00 0.00 83 1016.1
20260906074843 25 74 1.6 6.4 0.00 0.00 0.00 83 1016.0
20260906074606 25 72 1.6 8.0 0.00 0.00 0.00 83 1014.5
20260906074347 25 75 3.2 8.0 0.00 0.00 0.00 83 1016.0
20260906073853 25 79 1.6 9.7 0.00 0.00 0.00 82 1016.0
20260906073359 25 83 3.2 9.7 0.00 0.00 0.00 82 1015.9
20260906073102 25 79 1.6 8.0 0.00 0.00 0.00 82 1014.4
20260906072844 25 82 4.8 8.0 0.00 0.00 0.00 82 1015.9
20260906072350 25 103 3.2 14.5 0.00 0.00 0.00 82 1015.9
20260906071855 25 86 4.8 14.5 0.00 0.00 0.00 82 1015.9
20260906071501 25 81 1.6 8.0 0.00 0.00 0.00 82 1014.4
20260906071400 25 84 3.2 17.7 0.00 0.00 0.00 82 1015.8
20260906070846 25 81 3.2 17.7 0.00 0.00 0.00 82 1015.8
20260906070350 25 76 6.4 12.9 0.00 0.00 0.00 81 1015.7
20260906070145 25 120 3.2 12.9 0.00 0.00 0.00 82 1014.2
20260906065857 25 86 4.8 8.0 0.00 0.00 0.00 81 1015.7
20260906065341 26 74 3.2 9.7 0.00 0.00 0.00 81 1015.9
20260906064848 26 80 1.6 8.0 0.00 0.00 0.00 81 1015.9
20260906064612 25 75 1.6 8.0 0.00 0.00 0.00 81 1014.4
20260906064355 26 92 3.2 8.0 0.00 0.00 0.00 81 1015.9
20260906063921 26 85 3.2 12.9 0.00 0.00 0.00 80 1015.9
20260906063344 26 77 4.8 12.9 0.00 0.00 0.00 80 1015.9
20260906063108 26 80 1.6 8.0 0.00 0.00 0.00 81 1014.4
20260906062851 26 74 3.2 8.0 0.00 0.00 0.00 81 1015.9
20260906062355 26 87 4.8 20.9 0.00 0.00 0.00 81 1015.8
20260906061900 26 69 3.2 11.3 0.00 0.00 0.00 82 1015.9
20260906061604 26 109 4.8 9.7 0.00 0.00 0.00 82 1014.4
20260906061346 26 82 4.8 9.7 0.00 0.00 0.00 82 1016.0
20260906060851 26 71 3.2 6.4 0.00 0.00 0.00 82 1016.0
20260906060357 26 80 1.6 4.8 0.00 0.00 0.00 82 1015.9
20260906055843 26 78 1.6 4.8 0.00 0.00 0.00 82 1016.0
20260906055348 26 84 1.6 4.8 0.00 0.00 0.00 81 1015.9
20260906054854 26 86 1.6 8.0 0.00 0.00 0.00 81 1015.8
20260906054500 26 84 0.0 9.7 0.00 0.00 0.00 81 1014.3
20260906054359 26 83 1.6 9.7 0.00 0.00 0.00 81 1015.9
20260906053846 27 127 3.2 12.9 0.00 0.00 0.00 81 1015.7
20260906053350 27 86 3.2 12.9 0.00 0.00 0.00 82 1015.7
20260906053117 26 107 3.2 12.9 0.00 0.00 0.00 82 1014.2
20260906052917 27 82 3.2 9.7 0.00 0.00 0.00 82 1015.7
20260906052342 27 73 3.2 9.7 0.00 0.00 0.00 82 1015.6
20260906051848 27 97 3.2 11.3 0.00 0.00 0.00 82 1015.6
20260906051611 27 78 3.2 11.3 0.00 0.00 0.00 82 1014.1
20260906051352 27 80 3.2 9.7 0.00 0.00 0.00 81 1015.6
20260906050842 27 111 3.2 8.0 0.00 0.00 0.00 81 1015.5
20260906050348 27 88 3.2 6.4 0.00 0.00 0.00 81 1015.4
20260906050138 27 84 3.2 6.4 0.00 0.00 0.00 81 1014.0
20260906045850 27 78 1.6 6.4 0.00 0.00 0.00 80 1015.4
20260906045356 27 84 3.2 9.7 0.00 0.00 0.00 80 1015.4
20260906044903 27 94 3.2 9.7 0.00 0.00 0.00 80 1015.3
20260906044606 27 77 1.6 9.7 0.00 0.00 0.00 80 1013.7
20260906044348 28 117 3.2 9.7 0.00 0.00 0.00 80 1015.2
20260906043852 28 73 1.6 9.7 0.00 0.00 0.00 79 1015.1
20260906043342 28 93 3.2 9.7 0.00 0.00 0.00 79 1015.2
20260906043124 28 75 1.6 8.0 0.00 0.00 0.00 79 1013.6
20260906042847 28 76 4.8 8.0 0.00 0.00 0.00 78 1015.1
20260906042410 28 65 4.8 8.0 0.00 0.00 0.00 78 1015.0
20260906041855 28 75 3.2 14.5 0.00 0.00 0.00 77 1015.1
20260906041619 28 74 1.6 14.5 0.00 0.00 0.00 77 1013.5
20260906041344 28 75 3.2 14.5 0.00 0.00 0.00 77 1015.0
20260906040849 28 100 3.2 9.7 0.00 0.00 0.00 77 1014.9
20260906040355 28 77 3.2 12.9 0.00 0.00 0.00 77 1014.8
20260906040020 28 63 1.6 16.1 0.00 0.00 0.00 77 1013.2
20260906035917 28 68 4.8 16.1 0.00 0.00 0.00 77 1014.7
20260906035341 28 68 6.4 16.1 0.00 0.00 0.00 77 1014.6
20260906034846 28 72 3.2 9.7 0.00 0.00 0.00 77 1014.5
20260906034611 28 73 3.2 11.3 0.00 0.00 0.00 76 1013.0
20260906034352 28 96 1.6 9.7 0.00 0.00 0.00 76 1014.6
20260906033844 29 75 1.6 6.4 0.00 0.00 0.00 76 1014.5
20260906033349 29 84 3.2 6.4 0.00 0.00 0.00 75 1014.5
20260906033111 28 91 1.6 6.4 0.00 0.00 0.00 75 1013.0
20260906032856 29 91 3.2 6.4 0.00 0.00 0.00 75 1014.5
20260906032340 29 92 1.6 4.8 0.00 0.00 0.00 74 1014.5
20260906031847 29 96 3.2 4.8 0.00 0.00 0.00 74 1014.5
20260906031606 29 92 0.0 4.8 0.00 0.00 0.00 74 1012.9
20260906031353 30 95 1.6 4.8 0.00 0.00 0.00 74 1014.5
20260906030859 30 104 3.2 4.8 0.00 0.00 0.00 74 1014.5
20260906030343 30 84 0.0 6.4 0.00 0.00 0.00 73 1014.5
20260906030133 29 84 1.6 6.4 0.00 0.00 0.00 73 1012.9
20260906025850 30 84 3.2 6.4 0.00 0.00 0.00 73 1014.5
20260906025356 30 79 3.2 9.7 0.00 0.00 0.00 72 1014.5
20260906024903 30 72 3.2 8.0 0.00 0.00 0.00 72 1014.4
20260906024508 30 68 1.6 8.0 0.00 0.00 0.00 72 1012.9
20260906024407 30 82 3.2 9.7 0.00 0.00 0.00 71 1014.4
20260906023852 30 74 3.2 8.0 0.00 0.00 0.00 71 1014.4
20260906023415 30 82 1.6 8.0 0.00 0.00 0.00 70 1014.4
20260906023118 30 82 1.6 8.0 0.00 0.00 0.00 70 1012.8
20260906022844 30 71 3.2 8.0 0.00 0.00 0.00 70 1014.4
20260906022345 30 81 1.6 12.9 0.00 0.00 0.00 70 1014.4
20260906021912 30 80 4.8 12.9 0.00 0.00 0.00 69 1014.3
20260906021616 30 80 0.0 9.7 0.00 0.00 0.00 69 1012.7
20260906021356 30 80 1.6 9.7 0.00 0.00 0.00 69 1014.3
20260906020842 31 69 1.6 6.4 0.00 0.00 0.00 69 1014.2
20260906020349 31 66 1.6 4.8 0.00 0.00 0.00 68 1014.3
20260906020017 30 62 1.6 8.0 0.00 0.00 0.00 68 1012.6
20260906015916 31 81 1.6 8.0 0.00 0.00 0.00 68 1014.1
20260906015400 31 84 1.6 8.0 0.00 0.00 0.00 67 1014.0
20260906014907 31 83 1.6 9.7 0.00 0.00 0.00 66 1014.0
20260906014612 31 83 1.6 9.7 0.00 0.00 0.00 66 1012.4
20260906014351 31 84 1.6 9.7 0.00 0.00 0.00 66 1014.0
20260906013857 31 84 3.2 9.7 0.00 0.00 0.00 65 1013.9
20260906013344 31 80 1.6 6.4 0.00 0.00 0.00 65 1013.7
20260906013105 31 76 1.6 6.4 0.00 0.00 0.00 64 1012.2
20260906012848 31 84 3.2 6.4 0.00 0.00 0.00 64 1013.6
20260906012353 31 92 1.6 6.4 0.00 0.00 0.00 63 1013.5
20260906011900 32 87 1.6 6.4 0.00 0.00 0.00 63 1013.5
20260906011623 31 88 0.0 6.4 0.00 0.00 0.00 63 1011.9
20260906011345 32 88 1.6 8.0 0.00 0.00 0.00 63 1013.4
20260906010849 32 77 1.6 8.0 0.00 0.00 0.00 63 1013.4
20260906010354 32 71 1.6 6.4 0.00 0.00 0.00 63 1013.4
20260906010149 32 85 0.0 6.4 0.00 0.00 0.00 62 1011.8
20260906005840 32 81 3.2 6.4 0.00 0.00 0.00 62 1013.4
20260906005408 32 55 0.0 6.4 0.00 0.00 0.00 61 1013.3
20260906004854 32 55 3.2 6.4 0.00 0.00 0.00 61 1013.4
20260906004618 32 360 1.6 4.8 0.00 0.00 0.00 61 1011.8
20260906004359 32 75 0.0 4.8 0.00 0.00 0.00 61 1013.3
20260906003906 32 74 0.0 4.8 0.00 0.00 0.00 60 1013.3
20260906003412 32 74 1.6 4.8 0.00 0.00 0.00 60 1013.3
20260906003116 32 74 0.0 1.6 0.00 0.00 0.00 60 1011.7
20260906002857 32 74 0.0 3.2 0.00 0.00 0.00 60 1013.3
20260906002342 32 74 0.0 3.2 0.00 0.00 0.00 60 1013.3
20260906001848 33 76 1.6 4.8 0.00 0.00 0.00 59 1013.4
20260906001611 32 75 0.0 6.4 0.00 0.00 0.00 59 1011.8
20260906001353 33 76 1.6 6.4 0.00 0.00 0.00 59 1013.3
20260906000858 33 78 1.6 6.4 0.00 0.00 0.00 59 1013.4
20260906000344 33 76 3.2 6.4 0.00 0.00 0.00 58 1013.4
20260906000141 32 76 1.6 6.4 0.00 0.00 0.00 58 1011.9
20260905235851 33 83 0.0 4.8 0.00 0.00 0.00 59 1013.4
20260905235419 33 78 1.6 6.4 0.00 0.00 0.00 58 1013.4
20260905234906 33 80 1.6 6.4 0.00 0.00 0.00 58 1013.3
20260905234612 33 80 1.6 6.4 0.00 0.00 0.00 58 1011.8
20260905234351 33 76 1.6 3.2 0.00 0.00 0.00 57 1013.2
20260905233858 33 73 0.0 4.8 0.00 0.00 0.00 57 1013.3
20260905233405 33 74 1.6 6.4 0.00 0.00 0.00 57 1013.1
20260905233108 33 84 0.0 9.7 0.00 0.00 0.00 57 1011.5
20260905232850 33 84 1.6 9.7 0.00 0.00 0.00 57 1013.1
20260905232356 33 84 3.2 9.7 0.00 0.00 0.00 56 1013.1
20260905231901 33 95 1.6 6.4 0.00 0.00 0.00 56 1013.1
20260905231617 33 96 0.0 6.4 0.00 0.00 0.00 56 1011.6
20260905231347 34 17 1.6 6.4 0.00 0.00 0.00 56 1013.2
20260905230852 34 68 1.6 6.4 0.00 0.00 0.00 56 1013.2
20260905230358 34 80 1.6 6.4 0.00 0.00 0.00 55 1013.1
20260905230135 34 86 1.6 4.8 0.00 0.00 0.00 55 1011.6
20260905225845 35 117 1.6 8.0 0.00 0.00 0.00 55 1013.1
20260905225350 35 63 1.6 8.0 0.00 0.00 0.00 54 1013.1
20260905224857 35 70 3.2 14.5 0.00 0.00 0.00 54 1013.1
20260905224503 35 50 4.8 14.5 0.00 0.00 0.00 54 1011.5
20260905224402 35 319 3.2 12.9 0.00 0.00 0.00 53 1013.1
20260905223847 35 56 1.6 8.0 0.00 0.00 0.00 52 1012.9
20260905223351 35 63 0.0 4.8 0.00 0.00 0.00 51 1012.9
20260905223116 35 63 0.0 4.8 0.00 0.00 0.00 51 1011.3
20260905222919 35 63 1.6 4.8 0.00 0.00 0.00 51 1012.9
20260905222403 35 63 3.2 6.4 0.00 0.00 0.00 50 1013.0
20260905221847 35 63 1.6 8.0 0.00 0.00 0.00 51 1013.0
20260905221610 35 23 1.6 12.9 0.00 0.00 0.00 51 1011.3
20260905221353 35 28 3.2 12.9 0.00 0.00 0.00 51 1012.9
20260905220859 35 60 1.6 6.4 0.00 0.00 0.00 52 1012.9
20260905220344 35 74 3.2 8.0 0.00 0.00 0.00 51 1013.0
20260905220138 35 88 3.2 8.0 0.00 0.00 0.00 51 1011.4
20260905215850 35 315 1.6 8.0 0.00 0.00 0.00 52 1012.9
20260905215357 35 52 3.2 6.4 0.00 0.00 0.00 52 1013.0
20260905214842 35 63 3.2 8.0 0.00 0.00 0.00 53 1013.0
20260905214605 35 79 0.0 8.0 0.00 0.00 0.00 52 1011.4
20260905214348 35 79 1.6 8.0 0.00 0.00 0.00 53 1013.0
20260905213914 35 69 1.6 4.8 0.00 0.00 0.00 53 1013.1
20260905213420 35 67 0.0 1.6 0.00 0.00 0.00 53 1013.2
20260905213123 35 67 0.0 1.6 0.00 0.00 0.00 53 1011.6
20260905212843 35 67 0.0 1.6 0.00 0.00 0.00 53 1013.2
20260905212348 35 67 0.0 4.8 0.00 0.00 0.00 52 1013.3
20260905211915 35 67 1.6 8.0 0.00 0.00 0.00 51 1013.2
20260905211501 35 67 1.6 8.0 0.00 0.00 0.00 51 1011.7
20260905211359 35 76 1.6 8.0 0.00 0.00 0.00 51 1013.3
20260905210845 36 79 3.2 6.4 0.00 0.00 0.00 50 1013.3
20260905210350 36 78 1.6 4.8 0.00 0.00 0.00 49 1013.3
20260905210145 36 78 1.6 4.8 0.00 0.00 0.00 49 1011.8
20260905205857 36 80 1.6 11.3 0.00 0.00 0.00 49 1013.3
20260905205342 36 82 1.6 11.3 0.00 0.00 0.00 49 1013.3
20260905204847 36 38 1.6 12.9 0.00 0.00 0.00 49 1013.4
20260905204611 36 25 1.6 12.9 0.00 0.00 0.00 49 1012.0
20260905204353 37 5 4.8 12.9 0.00 0.00 0.00 48 1013.6
20260905203920 37 90 4.8 11.3 0.00 0.00 0.00 47 1013.5
20260905203343 37 320 1.6 12.9 0.00 0.00 0.00 47 1013.6
20260905203107 36 320 0.0 12.9 0.00 0.00 0.00 46 1012.1
20260905202848 37 320 1.6 12.9 0.00 0.00 0.00 46 1013.7
20260905202354 37 25 3.2 4.8 0.00 0.00 0.00 48 1013.7
20260905201900 37 30 1.6 4.8 0.00 0.00 0.00 48 1013.8
20260905201624 36 30 1.6 4.8 0.00 0.00 0.00 48 1012.2
20260905201344 37 30 1.6 6.4 0.00 0.00 0.00 47 1013.7
20260905200911 36 17 1.6 6.4 0.00 0.00 0.00 47 1013.7
20260905200356 36 22 1.6 6.4 0.00 0.00 0.00 48 1013.8
20260905200152 36 360 0.0 4.8 0.00 0.00 0.00 47 1012.2
20260905195844 36 360 1.6 4.8 0.00 0.00 0.00 47 1013.9
20260905195352 36 355 1.6 8.0 0.00 0.00 0.00 48 1013.9
20260905194918 36 355 3.2 8.0 0.00 0.00 0.00 47 1014.1
20260905194621 36 13 1.6 6.4 0.00 0.00 0.00 49 1012.4
20260905194343 36 17 1.6 14.5 0.00 0.00 0.00 49 1014.0
20260905193848 36 22 4.8 14.5 0.00 0.00 0.00 49 1014.1
20260905193354 36 338 1.6 4.8 0.00 0.00 0.00 49 1014.0
20260905193118 36 338 0.0 4.8 0.00 0.00 0.00 48 1012.5
20260905192840 36 337 1.6 4.8 0.00 0.00 0.00 49 1014.1
20260905192348 36 355 1.6 6.4 0.00 0.00 0.00 48 1014.1
20260905191853 36 355 3.2 9.7 0.00 0.00 0.00 47 1014.2
20260905191616 36 346 1.6 9.7 0.00 0.00 0.00 46 1012.6
20260905191420 36 355 4.8 9.7 0.00 0.00 0.00 47 1014.3
20260905190845 36 319 1.6 14.5 0.00 0.00 0.00 46 1014.2
20260905190412 36 343 6.4 14.5 0.00 0.00 0.00 46 1014.2
20260905190146 36 10 1.6 6.4 0.00 0.00 0.00 48 1012.6
20260905185859 36 10 3.2 8.0 0.00 0.00 0.00 47 1014.3
20260905185343 37 17 1.6 8.0 0.00 0.00 0.00 47 1014.3
20260905184849 37 9 3.2 9.7 0.00 0.00 0.00 46 1014.4
20260905184612 36 322 1.6 9.7 0.00 0.00 0.00 45 1012.7
20260905184354 37 322 3.2 9.7 0.00 0.00 0.00 45 1014.2
20260905183859 37 5 3.2 4.8 0.00 0.00 0.00 44 1014.3
20260905183406 37 5 1.6 4.8 0.00 0.00 0.00 46 1014.4
20260905183108 37 355 0.0 4.8 0.00 0.00 0.00 44 1012.7
20260905182851 37 355 1.6 8.0 0.00 0.00 0.00 45 1014.4
20260905182358 37 355 3.2 9.7 0.00 0.00 0.00 44 1014.5
20260905181844 37 32 1.6 9.7 0.00 0.00 0.00 45 1014.5
20260905181608 37 9 1.6 6.4 0.00 0.00 0.00 46 1012.9
20260905181350 37 5 1.6 6.4 0.00 0.00 0.00 46 1014.5
20260905180855 37 5 1.6 6.4 0.00 0.00 0.00 46 1014.5
20260905180341 37 9 1.6 6.4 0.00 0.00 0.00 45 1014.6
20260905180136 37 9 0.0 6.4 0.00 0.00 0.00 46 1012.9
20260905175849 37 9 3.2 6.4 0.00 0.00 0.00 44 1014.6
20260905175354 37 16 1.6 8.0 0.00 0.00 0.00 47 1014.7
20260905174859 37 17 1.6 8.0 0.00 0.00 0.00 46 1014.7
20260905174505 37 12 1.6 4.8 0.00 0.00 0.00 45 1013.1
20260905174405 37 11 1.6 3.2 0.00 0.00 0.00 46 1014.7
20260905173849 37 355 0.0 4.8 0.00 0.00 0.00 46 1014.8
20260905173354 37 355 1.6 4.8 0.00 0.00 0.00 45 1014.9
20260905173123 37 355 0.0 3.2 0.00 0.00 0.00 46 1013.5
20260905172841 37 355 0.0 3.2 0.00 0.00 0.00 45 1014.9
20260905172348 37 355 1.6 4.8 0.00 0.00 0.00 45 1015.1
20260905171854 37 355 1.6 4.8 0.00 0.00 0.00 47 1015.1
20260905171619 37 355 1.6 4.8 0.00 0.00 0.00 46 1013.6
20260905171421 37 355 1.6 4.8 0.00 0.00 0.00 45 1015.3
20260905170846 37 360 1.6 6.4 0.00 0.00 0.00 46 1015.3
20260905170350 37 13 1.6 8.0 0.00 0.00 0.00 49 1015.3
20260905170145 36 12 3.2 8.0 0.00 0.00 0.00 47 1013.7
20260905165858 36 9 3.2 8.0 0.00 0.00 0.00 48 1015.4
20260905165404 36 11 1.6 4.8 0.00 0.00 0.00 50 1015.3
20260905164909 36 11 1.6 4.8 0.00 0.00 0.00 50 1015.2
20260905164611 36 11 1.6 6.4 0.00 0.00 0.00 50 1013.6
20260905164413 36 11 0.0 6.4 0.00 0.00 0.00 50 1015.1
20260905163919 36 11 3.2 6.4 0.00 0.00 0.00 50 1015.2
20260905163343 36 5 1.6 4.8 0.00 0.00 0.00 51 1015.1
20260905163107 35 5 1.6 6.4 0.00 0.00 0.00 51 1013.6
20260905162910 35 5 0.0 6.4 0.00 0.00 0.00 53 1015.1
20260905162416 35 5 3.2 6.4 0.00 0.00 0.00 52 1015.2
20260905161859 35 5 0.0 3.2 0.00 0.00 0.00 55 1014.9
20260905161622 34 5 0.0 3.2 0.00 0.00 0.00 55 1013.4
20260905161343 35 9 1.6 3.2 0.00 0.00 0.00 55 1015.1
20260905160911 35 9 0.0 3.2 0.00 0.00 0.00 56 1015.1
20260905160354 35 9 1.6 3.2 0.00 0.00 0.00 56 1015.0
20260905160002 34 13 0.0 3.2 0.00 0.00 0.00 57 1013.6
20260905155901 34 13 1.6 3.2 0.00 0.00 0.00 57 1015.0
20260905155407 34 13 0.0 3.2 0.00 0.00 0.00 57 1015.1
20260905154853 34 13 1.6 4.8 0.00 0.00 0.00 56 1015.1
20260905154617 33 9 0.0 4.8 0.00 0.00 0.00 57 1013.6
20260905154358 33 9 1.6 4.8 0.00 0.00 0.00 58 1015.1
20260905153905 33 11 1.6 4.8 0.00 0.00 0.00 58 1015.1
20260905153410 33 9 0.0 4.8 0.00 0.00 0.00 60 1015.1
20260905153109 32 9 0.0 4.8 0.00 0.00 0.00 60 1013.5
20260905152916 32 9 1.6 6.4 0.00 0.00 0.00 59 1015.1
20260905152359 32 9 3.2 6.4 0.00 0.00 0.00 60 1015.1
20260905151843 31 11 0.0 6.4 0.00 0.00 0.00 62 1015.1
20260905151646 31 11 0.0 6.4 0.00 0.00 0.00 63 1013.6
20260905151349 31 11 1.6 6.4 0.00 0.00 0.00 64 1015.1
20260905150853 31 298 0.0 0.0 0.00 0.00 0.00 65 1015.1